| time (UTC) | temp F | wind direction | speed MPH | gust MPH | rain 1hr in | rain 24hr in | rain mn in | humidity % | barometer mb |
| 20260903235050 | 56 | 183 | 0.0 | 0.0 | 0.00 | 0.08 | 0.06 | 100 | 1000.3 |
| 20260903234954 | 56 | 183 | 0.0 | 0.0 | 0.00 | 0.08 | 0.06 | 100 | 1000.3 |
| 20260903234529 | 56 | 175 | 0.0 | 0.0 | 0.00 | 0.08 | 0.06 | 100 | 1000.3 |
| 20260903234452 | 56 | 175 | 0.0 | 0.0 | 0.00 | 0.08 | 0.06 | 100 | 1000.3 |
| 20260903234004 | 55 | 141 | 0.0 | 0.0 | 0.00 | 0.08 | 0.06 | 100 | 1000.2 |
| 20260903233948 | 56 | 141 | 0.0 | 0.0 | 0.00 | 0.08 | 0.06 | 100 | 1000.3 |
| 20260903233540 | 55 | 141 | 0.0 | 0.0 | 0.00 | 0.08 | 0.06 | 100 | 1000.2 |
| 20260903233525 | 56 | 141 | 0.0 | 0.0 | 0.00 | 0.08 | 0.06 | 100 | 1000.3 |
| 20260903233050 | 55 | 138 | 0.0 | 0.0 | 0.00 | 0.08 | 0.06 | 100 | 1000.3 |
| 20260903233028 | 56 | 138 | 0.0 | 0.0 | 0.00 | 0.08 | 0.06 | 100 | 1000.4 |
| 20260903232552 | 55 | 134 | 0.0 | 0.0 | 0.00 | 0.08 | 0.06 | 100 | 1000.4 |
| 20260903232455 | 56 | 136 | 0.0 | 0.0 | 0.00 | 0.08 | 0.06 | 100 | 1000.4 |
| 20260903232024 | 55 | 202 | 0.0 | 0.0 | 0.00 | 0.08 | 0.06 | 100 | 1000.3 |
| 20260903231948 | 56 | 202 | 0.0 | 0.0 | 0.00 | 0.08 | 0.06 | 100 | 1000.4 |
| 20260903231611 | 55 | 211 | 0.0 | 0.0 | 0.00 | 0.08 | 0.06 | 100 | 1000.4 |
| 20260903231515 | 56 | 211 | 0.0 | 0.0 | 0.00 | 0.08 | 0.06 | 100 | 1000.4 |
| 20260903231031 | 55 | 211 | 0.0 | 0.0 | 0.00 | 0.08 | 0.06 | 100 | 1000.6 |
| 20260903231003 | 56 | 211 | 0.0 | 0.0 | 0.00 | 0.08 | 0.06 | 100 | 1000.6 |
| 20260903230557 | 56 | 211 | 0.0 | 0.0 | 0.00 | 0.08 | 0.06 | 100 | 1000.6 |
| 20260903230448 | 56 | 211 | 0.0 | 0.0 | 0.00 | 0.08 | 0.06 | 100 | 1000.7 |
| 20260903230041 | 56 | 204 | 0.0 | 0.0 | 0.00 | 0.08 | 0.06 | 100 | 1000.9 |
| 20260903230014 | 57 | 204 | 0.0 | 0.0 | 0.00 | 0.08 | 0.06 | 100 | 1000.9 |
| 20260903225607 | 56 | 192 | 0.0 | 0.0 | 0.00 | 0.08 | 0.06 | 100 | 1000.8 |
| 20260903225508 | 57 | 182 | 0.0 | 0.0 | 0.00 | 0.08 | 0.06 | 100 | 1000.8 |
| 20260903225048 | 57 | 225 | 0.0 | 0.0 | 0.00 | 0.08 | 0.06 | 100 | 1000.7 |
| 20260903225007 | 57 | 223 | 0.0 | 0.0 | 0.00 | 0.08 | 0.06 | 100 | 1000.7 |
| 20260903224520 | 57 | 211 | 0.0 | 0.0 | 0.00 | 0.08 | 0.06 | 100 | 1000.7 |
| 20260903224458 | 58 | 198 | 0.0 | 0.0 | 0.00 | 0.08 | 0.06 | 100 | 1000.8 |
| 20260903224046 | 58 | 234 | 0.0 | 0.0 | 0.00 | 0.08 | 0.06 | 100 | 1000.7 |
| 20260903223953 | 58 | 229 | 0.0 | 0.0 | 0.00 | 0.08 | 0.06 | 100 | 1000.7 |
| 20260903223618 | 59 | 204 | 0.0 | 0.0 | 0.00 | 0.08 | 0.06 | 100 | 1000.8 |
| 20260903223514 | 60 | 244 | 0.0 | 0.0 | 0.00 | 0.08 | 0.06 | 100 | 1000.8 |
| 20260903223055 | 60 | 213 | 0.0 | 0.0 | 0.00 | 0.08 | 0.06 | 100 | 1000.6 |
| 20260903223002 | 61 | 244 | 0.0 | 0.0 | 0.00 | 0.08 | 0.06 | 100 | 1000.6 |
| 20260903222622 | 61 | 230 | 0.0 | 0.0 | 0.00 | 0.08 | 0.06 | 100 | 1000.5 |
| 20260903222525 | 62 | 242 | 0.0 | 0.0 | 0.00 | 0.08 | 0.06 | 100 | 1000.5 |
| 20260903222037 | 62 | 226 | 0.0 | 0.0 | 0.00 | 0.08 | 0.06 | 100 | 1000.5 |
| 20260903222000 | 62 | 248 | 0.0 | 0.0 | 0.00 | 0.08 | 0.06 | 100 | 1000.5 |
| 20260903221608 | 62 | 238 | 0.0 | 0.0 | 0.00 | 0.08 | 0.06 | 100 | 1000.5 |
| 20260903221520 | 63 | 240 | 0.0 | 0.0 | 0.00 | 0.08 | 0.06 | 100 | 1000.5 |
| 20260903221015 | 62 | 242 | 0.0 | 0.0 | 0.00 | 0.08 | 0.06 | 100 | 1000.4 |
| 20260903220948 | 63 | 244 | 0.0 | 0.0 | 0.00 | 0.08 | 0.06 | 100 | 1000.5 |
| 20260903220553 | 62 | 223 | 0.0 | 0.0 | 0.00 | 0.08 | 0.06 | 100 | 1000.4 |
| 20260903220509 | 63 | 186 | 0.0 | 0.0 | 0.00 | 0.08 | 0.06 | 100 | 1000.5 |
| 20260903220037 | 62 | 185 | 0.0 | 0.0 | 0.00 | 0.08 | 0.06 | 100 | 1000.4 |
| 20260903220005 | 62 | 185 | 0.0 | 0.0 | 0.00 | 0.08 | 0.06 | 100 | 1000.4 |
| 20260903215554 | 62 | 184 | 0.0 | 0.0 | 0.00 | 0.08 | 0.06 | 100 | 1000.4 |
| 20260903215458 | 62 | 184 | 0.0 | 0.0 | 0.00 | 0.08 | 0.06 | 100 | 1000.4 |
| 20260903215023 | 62 | 225 | 0.0 | 0.0 | 0.00 | 0.08 | 0.06 | 100 | 1000.4 |
| 20260903214952 | 62 | 230 | 0.0 | 0.0 | 0.00 | 0.08 | 0.06 | 100 | 1000.5 |
| 20260903214555 | 61 | 172 | 0.0 | 0.0 | 0.00 | 0.08 | 0.06 | 100 | 1000.5 |
| 20260903214502 | 61 | 173 | 0.0 | 0.0 | 0.00 | 0.08 | 0.06 | 100 | 1000.5 |
| 20260903214450 | 62 | 209 | 0.0 | 0.0 | 0.00 | 0.08 | 0.06 | 100 | 1000.5 |
| 20260903214041 | 61 | 184 | 0.0 | 0.0 | 0.00 | 0.08 | 0.06 | 100 | 1000.4 |
| 20260903213949 | 62 | 205 | 0.0 | 0.0 | 0.00 | 0.08 | 0.06 | 100 | 1000.4 |
| 20260903213549 | 61 | 220 | 0.0 | 0.0 | 0.00 | 0.08 | 0.06 | 100 | 1000.5 |
| 20260903213510 | 61 | 216 | 0.0 | 0.0 | 0.00 | 0.08 | 0.06 | 100 | 1000.5 |
| 20260903213025 | 61 | 207 | 0.0 | 0.0 | 0.00 | 0.08 | 0.06 | 100 | 1000.5 |
| 20260903213005 | 61 | 186 | 0.0 | 0.0 | 0.00 | 0.08 | 0.06 | 100 | 1000.6 |
| 20260903212550 | 61 | 173 | 0.0 | 0.0 | 0.00 | 0.09 | 0.06 | 100 | 1000.5 |
| 20260903212501 | 62 | 175 | 0.0 | 0.0 | 0.00 | 0.09 | 0.06 | 100 | 1000.6 |
| 20260903212034 | 61 | 167 | 0.0 | 0.0 | 0.00 | 0.09 | 0.06 | 100 | 1000.7 |
| 20260903211956 | 62 | 190 | 0.0 | 0.0 | 0.00 | 0.09 | 0.06 | 100 | 1000.7 |
| 20260903211535 | 61 | 194 | 0.0 | 0.0 | 0.00 | 0.09 | 0.06 | 100 | 1000.6 |
| 20260903211449 | 62 | 200 | 0.0 | 0.0 | 0.00 | 0.09 | 0.06 | 100 | 1000.6 |
| 20260903211107 | 61 | 194 | 0.0 | 0.0 | 0.00 | 0.09 | 0.06 | 100 | 1000.7 |
| 20260903211010 | 62 | 219 | 0.0 | 0.0 | 0.00 | 0.09 | 0.06 | 100 | 1000.6 |
| 20260903210541 | 61 | 204 | 0.0 | 0.0 | 0.00 | 0.09 | 0.06 | 100 | 1000.6 |
| 20260903210507 | 62 | 200 | 0.0 | 0.0 | 0.00 | 0.09 | 0.06 | 100 | 1000.6 |
| 20260903210012 | 61 | 201 | 0.0 | 0.0 | 0.00 | 0.09 | 0.06 | 100 | 1000.6 |
| 20260903205959 | 62 | 188 | 0.0 | 0.0 | 0.00 | 0.09 | 0.06 | 100 | 1000.5 |
| 20260903205539 | 61 | 188 | 0.0 | 0.0 | 0.00 | 0.09 | 0.06 | 100 | 1000.5 |
| 20260903205453 | 62 | 211 | 0.0 | 0.0 | 0.00 | 0.09 | 0.06 | 100 | 1000.6 |
| 20260903205113 | 61 | 213 | 0.0 | 0.0 | 0.00 | 0.09 | 0.06 | 100 | 1000.6 |
| 20260903205016 | 62 | 225 | 0.0 | 0.0 | 0.00 | 0.09 | 0.06 | 100 | 1000.5 |
| 20260903204537 | 61 | 186 | 0.0 | 0.0 | 0.00 | 0.09 | 0.06 | 100 | 1000.5 |
| 20260903204500 | 61 | 227 | 0.0 | 0.0 | 0.00 | 0.09 | 0.06 | 100 | 1000.5 |
| 20260903204038 | 61 | 184 | 0.0 | 0.0 | 0.00 | 0.09 | 0.06 | 100 | 1000.5 |
| 20260903203951 | 61 | 184 | 0.0 | 0.0 | 0.00 | 0.09 | 0.06 | 100 | 1000.5 |
| 20260903203515 | 61 | 186 | 0.0 | 0.0 | 0.00 | 0.09 | 0.06 | 100 | 1000.5 |
| 20260903203445 | 61 | 207 | 0.0 | 0.0 | 0.00 | 0.09 | 0.06 | 100 | 1000.5 |
| 20260903203041 | 61 | 169 | 0.0 | 0.0 | 0.00 | 0.09 | 0.06 | 100 | 1000.4 |
| 20260903203006 | 61 | 206 | 0.0 | 0.0 | 0.00 | 0.09 | 0.06 | 100 | 1000.5 |
| 20260903202513 | 60 | 153 | 0.0 | 0.0 | 0.00 | 0.19 | 0.06 | 100 | 1000.4 |
| 20260903202456 | 61 | 168 | 0.0 | 0.0 | 0.00 | 0.19 | 0.06 | 100 | 1000.4 |
| 20260903202139 | 60 | 167 | 0.0 | 0.0 | 0.00 | 0.19 | 0.06 | 100 | 1000.4 |
| 20260903202039 | 61 | 194 | 0.0 | 0.0 | 0.00 | 0.19 | 0.06 | 100 | 1000.5 |
| 20260903201550 | 60 | 167 | 0.0 | 0.0 | 0.00 | 0.19 | 0.06 | 100 | 1000.5 |
| 20260903201509 | 60 | 165 | 0.0 | 0.0 | 0.00 | 0.19 | 0.06 | 100 | 1000.5 |
| 20260903201017 | 59 | 198 | 0.0 | 0.0 | 0.00 | 0.19 | 0.06 | 100 | 1000.5 |
| 20260903200957 | 60 | 174 | 0.0 | 0.0 | 0.00 | 0.19 | 0.06 | 100 | 1000.5 |
| 20260903200541 | 59 | 207 | 0.0 | 0.0 | 0.00 | 0.19 | 0.06 | 100 | 1000.4 |
| 20260903200448 | 59 | 144 | 0.0 | 0.0 | 0.00 | 0.19 | 0.06 | 100 | 1000.4 |
| 20260903200118 | 59 | 192 | 0.0 | 0.0 | 0.00 | 0.19 | 0.06 | 100 | 1000.4 |
| 20260903200014 | 59 | 168 | 0.0 | 0.0 | 0.00 | 0.19 | 0.06 | 100 | 1000.5 |
| 20260903195544 | 59 | 176 | 0.0 | 0.0 | 0.00 | 0.19 | 0.06 | 100 | 1000.4 |
| 20260903195505 | 60 | 159 | 0.0 | 0.0 | 0.00 | 0.19 | 0.06 | 100 | 1000.5 |
| 20260903195022 | 60 | 190 | 0.0 | 0.0 | 0.00 | 0.19 | 0.06 | 100 | 1000.4 |
| 20260903195007 | 61 | 244 | 0.0 | 0.0 | 0.00 | 0.19 | 0.06 | 100 | 1000.5 |
| 20260903194549 | 60 | 169 | 0.0 | 0.0 | 0.00 | 0.19 | 0.06 | 100 | 1000.5 |
| 20260903194456 | 61 | 189 | 0.0 | 0.0 | 0.00 | 0.19 | 0.06 | 100 | 1000.4 |
| 20260903194114 | 60 | 159 | 5.0 | 0.0 | 0.00 | 0.19 | 0.06 | 100 | 1000.5 |
| 20260903194016 | 60 | 182 | 7.0 | 16.0 | 0.00 | 0.19 | 0.06 | 81 | 1000.4 |
| 20260903193533 | 59 | 144 | 6.0 | 14.0 | 0.00 | 0.19 | 0.06 | 83 | 1000.3 |
| 20260903193501 | 59 | 138 | 5.0 | 14.0 | 0.00 | 0.19 | 0.06 | 83 | 1000.4 |
| 20260903193101 | 59 | 123 | 4.0 | 14.0 | 0.00 | 0.19 | 0.06 | 83 | 1000.4 |
| 20260903193005 | 59 | 144 | 4.0 | 14.0 | 0.00 | 0.19 | 0.06 | 84 | 1000.4 |
| 20260903192950 | 59 | 138 | 4.0 | 14.0 | 0.00 | 0.19 | 0.06 | 84 | 1000.5 |
| 20260903192534 | 58 | 128 | 4.0 | 9.0 | 0.00 | 0.27 | 0.06 | 83 | 1000.6 |
| 20260903192445 | 59 | 134 | 5.0 | 9.0 | 0.00 | 0.27 | 0.06 | 83 | 1000.5 |
| 20260903192105 | 58 | 130 | 4.0 | 8.0 | 0.00 | 0.27 | 0.06 | 84 | 1000.5 |
| 20260903192006 | 59 | 158 | 4.0 | 8.0 | 0.00 | 0.27 | 0.06 | 84 | 1000.6 |
| 20260903191553 | 58 | 152 | 3.0 | 7.0 | 0.00 | 0.27 | 0.06 | 86 | 1000.6 |
| 20260903191504 | 58 | 130 | 3.0 | 7.0 | 0.00 | 0.27 | 0.06 | 86 | 1000.7 |
| 20260903191106 | 58 | 132 | 2.0 | 9.0 | 0.00 | 0.27 | 0.06 | 86 | 1000.6 |
| 20260903191001 | 58 | 132 | 3.0 | 9.0 | 0.00 | 0.27 | 0.06 | 86 | 1000.7 |
| 20260903190539 | 58 | 130 | 3.0 | 9.0 | 0.00 | 0.27 | 0.06 | 86 | 1000.7 |
| 20260903190500 | 58 | 132 | 3.0 | 9.0 | 0.00 | 0.27 | 0.06 | 86 | 1000.7 |
| 20260903190014 | 57 | 138 | 3.0 | 9.0 | 0.00 | 0.27 | 0.06 | 86 | 1000.7 |
| 20260903185958 | 58 | 157 | 4.0 | 9.0 | 0.00 | 0.27 | 0.06 | 86 | 1000.7 |
| 20260903185541 | 57 | 143 | 3.0 | 9.0 | 0.00 | 0.27 | 0.06 | 86 | 1000.7 |
| 20260903185452 | 58 | 134 | 4.0 | 9.0 | 0.00 | 0.27 | 0.06 | 86 | 1000.7 |
| 20260903185115 | 57 | 153 | 2.0 | 12.0 | 0.00 | 0.27 | 0.06 | 86 | 1000.7 |
| 20260903185011 | 58 | 152 | 3.0 | 12.0 | 0.00 | 0.27 | 0.06 | 86 | 1000.7 |
| 20260903184535 | 58 | 150 | 4.0 | 12.0 | 0.00 | 0.27 | 0.06 | 85 | 1000.7 |
| 20260903184513 | 58 | 146 | 5.0 | 12.0 | 0.00 | 0.27 | 0.06 | 85 | 1000.7 |
| 20260903184102 | 58 | 166 | 4.0 | 12.0 | 0.00 | 0.27 | 0.06 | 85 | 1000.8 |
| 20260903184008 | 58 | 173 | 4.0 | 12.0 | 0.00 | 0.27 | 0.06 | 85 | 1000.8 |
| 20260903183543 | 58 | 150 | 3.0 | 7.0 | 0.00 | 0.27 | 0.06 | 85 | 1000.7 |
| 20260903183510 | 59 | 194 | 3.0 | 7.0 | 0.00 | 0.27 | 0.06 | 85 | 1000.8 |
| 20260903183041 | 58 | 150 | 2.0 | 7.0 | 0.00 | 0.27 | 0.06 | 84 | 1000.7 |
| 20260903183013 | 59 | 155 | 2.0 | 7.0 | 0.00 | 0.27 | 0.06 | 84 | 1000.7 |
| 20260903182556 | 59 | 146 | 3.0 | 10.0 | 0.00 | 0.31 | 0.06 | 83 | 1000.7 |
| 20260903182507 | 59 | 146 | 3.0 | 10.0 | 0.00 | 0.31 | 0.06 | 83 | 1000.8 |
| 20260903182114 | 59 | 162 | 5.0 | 11.0 | 0.00 | 0.31 | 0.06 | 82 | 1000.7 |
| 20260903182014 | 59 | 162 | 5.0 | 11.0 | 0.00 | 0.31 | 0.06 | 82 | 1000.8 |
| 20260903181539 | 59 | 154 | 5.0 | 11.0 | 0.00 | 0.31 | 0.06 | 81 | 1000.7 |
| 20260903181508 | 60 | 159 | 6.0 | 11.0 | 0.00 | 0.31 | 0.06 | 81 | 1000.8 |
| 20260903181013 | 59 | 123 | 4.0 | 11.0 | 0.00 | 0.31 | 0.06 | 84 | 1000.7 |
| 20260903180956 | 60 | 168 | 4.0 | 11.0 | 0.00 | 0.31 | 0.06 | 84 | 1000.7 |
| 20260903180542 | 59 | 163 | 2.0 | 7.0 | 0.00 | 0.31 | 0.06 | 84 | 1000.6 |
| 20260903180512 | 60 | 137 | 2.0 | 7.0 | 0.00 | 0.31 | 0.06 | 85 | 1000.6 |
| 20260903180049 | 59 | 136 | 2.0 | 12.0 | 0.00 | 0.31 | 0.06 | 85 | 1000.5 |
| 20260903180034 | 59 | 136 | 2.0 | 12.0 | 0.00 | 0.31 | 0.06 | 85 | 1000.5 |
| 20260903175551 | 59 | 136 | 5.0 | 12.0 | 0.00 | 0.31 | 0.06 | 85 | 1000.5 |
| 20260903175505 | 59 | 136 | 5.0 | 12.0 | 0.00 | 0.31 | 0.06 | 86 | 1000.5 |
| 20260903175023 | 59 | 131 | 2.0 | 7.0 | 0.00 | 0.31 | 0.06 | 87 | 1000.5 |
| 20260903174959 | 59 | 135 | 2.0 | 6.0 | 0.00 | 0.31 | 0.06 | 87 | 1000.5 |
| 20260903174546 | 58 | 220 | 2.0 | 8.0 | 0.00 | 0.31 | 0.06 | 88 | 1000.5 |
| 20260903174446 | 59 | 148 | 3.0 | 8.0 | 0.00 | 0.31 | 0.06 | 88 | 1000.5 |
| 20260903174021 | 58 | 140 | 3.0 | 8.0 | 0.00 | 0.31 | 0.06 | 89 | 1000.5 |
| 20260903173945 | 59 | 140 | 4.0 | 8.0 | 0.00 | 0.31 | 0.06 | 89 | 1000.5 |
| 20260903173536 | 58 | 144 | 2.0 | 6.0 | 0.00 | 0.31 | 0.06 | 89 | 1000.4 |
| 20260903173509 | 59 | 145 | 3.0 | 7.0 | 0.00 | 0.31 | 0.06 | 89 | 1000.5 |
| 20260903173111 | 58 | 144 | 1.0 | 7.0 | 0.00 | 0.31 | 0.06 | 90 | 1000.4 |
| 20260903173005 | 58 | 144 | 2.0 | 7.0 | 0.00 | 0.31 | 0.06 | 90 | 1000.5 |
| 20260903172538 | 57 | 145 | 1.0 | 9.0 | 0.00 | 0.31 | 0.06 | 90 | 1000.4 |
| 20260903172502 | 58 | 144 | 2.0 | 9.0 | 0.00 | 0.31 | 0.06 | 91 | 1000.4 |
| 20260903172014 | 57 | 144 | 3.0 | 9.0 | 0.00 | 0.31 | 0.06 | 90 | 1000.4 |
| 20260903171955 | 58 | 144 | 3.0 | 9.0 | 0.00 | 0.31 | 0.06 | 91 | 1000.5 |
| 20260903171538 | 57 | 138 | 3.0 | 8.0 | 0.00 | 0.31 | 0.06 | 92 | 1000.5 |
| 20260903171447 | 57 | 139 | 3.0 | 8.0 | 0.00 | 0.31 | 0.06 | 92 | 1000.5 |
| 20260903171109 | 57 | 134 | 1.0 | 5.0 | 0.00 | 0.31 | 0.06 | 92 | 1000.5 |
| 20260903171029 | 57 | 134 | 1.0 | 4.0 | 0.00 | 0.31 | 0.06 | 93 | 1000.6 |
| 20260903170520 | 56 | 134 | 1.0 | 5.0 | 0.00 | 0.31 | 0.06 | 92 | 1000.6 |
| 20260903170503 | 57 | 134 | 2.0 | 5.0 | 0.00 | 0.31 | 0.06 | 92 | 1000.7 |
| 20260903170046 | 56 | 133 | 2.0 | 6.0 | 0.00 | 0.31 | 0.06 | 92 | 1000.7 |
| 20260903165955 | 57 | 134 | 2.0 | 6.0 | 0.00 | 0.31 | 0.06 | 92 | 1000.7 |
| 20260903165619 | 56 | 134 | 2.0 | 6.0 | 0.00 | 0.31 | 0.06 | 93 | 1000.7 |
| 20260903165515 | 57 | 134 | 2.0 | 6.0 | 0.00 | 0.31 | 0.06 | 93 | 1000.7 |
| 20260903165047 | 56 | 134 | 1.0 | 5.0 | 0.00 | 0.31 | 0.06 | 93 | 1000.8 |
| 20260903165007 | 57 | 134 | 1.0 | 5.0 | 0.00 | 0.31 | 0.06 | 94 | 1000.9 |
| 20260903164520 | 56 | 134 | 0.0 | 4.0 | 0.00 | 0.31 | 0.06 | 94 | 1000.8 |
| 20260903164506 | 57 | 134 | 0.0 | 4.0 | 0.00 | 0.31 | 0.06 | 94 | 1000.9 |
| 20260903164046 | 56 | 134 | 0.0 | 4.0 | 0.01 | 0.31 | 0.06 | 94 | 1000.9 |
| 20260903163958 | 57 | 134 | 0.0 | 4.0 | 0.01 | 0.31 | 0.06 | 94 | 1001.0 |
| 20260903163515 | 56 | 134 | 0.0 | 3.0 | 0.01 | 0.31 | 0.06 | 94 | 1000.9 |
| 20260903163448 | 57 | 134 | 1.0 | 3.0 | 0.01 | 0.31 | 0.06 | 94 | 1001.0 |
| 20260903163050 | 56 | 134 | 0.0 | 2.0 | 0.01 | 0.31 | 0.06 | 94 | 1001.0 |
| 20260903163008 | 56 | 134 | 0.0 | 4.0 | 0.01 | 0.31 | 0.06 | 94 | 1001.0 |
| 20260903162521 | 56 | 134 | 0.0 | 5.0 | 0.01 | 0.31 | 0.06 | 94 | 1000.9 |
| 20260903162504 | 56 | 134 | 1.0 | 5.0 | 0.01 | 0.31 | 0.06 | 94 | 1001.0 |
| 20260903162048 | 55 | 134 | 2.0 | 5.0 | 0.01 | 0.31 | 0.06 | 94 | 1000.9 |
| 20260903161952 | 56 | 134 | 3.0 | 5.0 | 0.01 | 0.31 | 0.06 | 94 | 1000.9 |
| 20260903161518 | 55 | 134 | 0.0 | 4.0 | 0.01 | 0.31 | 0.06 | 93 | 1000.9 |
| 20260903161447 | 55 | 134 | 1.0 | 4.0 | 0.01 | 0.31 | 0.06 | 93 | 1000.9 |
| 20260903161055 | 55 | 134 | 1.0 | 4.0 | 0.02 | 0.31 | 0.06 | 93 | 1000.9 |
| 20260903161009 | 55 | 134 | 1.0 | 4.0 | 0.02 | 0.31 | 0.06 | 93 | 1000.9 |
| 20260903160521 | 55 | 133 | 0.0 | 4.0 | 0.02 | 0.31 | 0.06 | 93 | 1000.8 |
| 20260903160458 | 55 | 133 | 0.0 | 4.0 | 0.02 | 0.31 | 0.06 | 93 | 1000.9 |
| 20260903160024 | 55 | 134 | 1.0 | 4.0 | 0.02 | 0.31 | 0.06 | 93 | 1000.9 |
| 20260903155516 | 55 | 134 | 0.0 | 0.0 | 0.02 | 0.31 | 0.06 | 92 | 1001.0 |
| 20260903155457 | 55 | 134 | 0.0 | 0.0 | 0.02 | 0.31 | 0.06 | 92 | 1001.0 |
| 20260903155043 | 55 | 134 | 0.0 | 0.0 | 0.02 | 0.31 | 0.06 | 93 | 1000.9 |
| 20260903155017 | 55 | 134 | 0.0 | 0.0 | 0.02 | 0.31 | 0.06 | 92 | 1001.0 |
| 20260903154520 | 55 | 134 | 0.0 | 0.0 | 0.02 | 0.31 | 0.06 | 92 | 1001.0 |
| 20260903045530 | 56 | 131 | 1.0 | 5.0 | 0.00 | 0.24 | 0.24 | 92 | 1000.2 |
| 20260903045504 | 57 | 130 | 1.0 | 5.0 | 0.00 | 0.24 | 0.24 | 92 | 1000.2 |
| 20260903045008 | 56 | 130 | 1.0 | 6.0 | 0.00 | 0.24 | 0.24 | 92 | 1000.2 |
| 20260903044953 | 57 | 126 | 1.0 | 6.0 | 0.00 | 0.24 | 0.24 | 92 | 1000.2 |
| 20260903044540 | 56 | 126 | 1.0 | 6.0 | 0.00 | 0.24 | 0.24 | 92 | 1000.2 |
| 20260903044451 | 57 | 125 | 1.0 | 6.0 | 0.00 | 0.24 | 0.24 | 92 | 1000.2 |
| 20260903044014 | 56 | 124 | 2.0 | 6.0 | 0.00 | 0.24 | 0.24 | 92 | 1000.1 |
| 20260903043946 | 57 | 124 | 2.0 | 6.0 | 0.00 | 0.24 | 0.24 | 92 | 1000.1 |
| 20260903043547 | 56 | 123 | 1.0 | 6.0 | 0.00 | 0.24 | 0.24 | 92 | 1000.1 |
| 20260903043507 | 57 | 124 | 1.0 | 6.0 | 0.00 | 0.24 | 0.24 | 92 | 1000.1 |
| 20260903043014 | 56 | 124 | 1.0 | 8.0 | 0.00 | 0.24 | 0.24 | 92 | 1000.0 |
| 20260903042949 | 57 | 123 | 2.0 | 8.0 | 0.00 | 0.24 | 0.24 | 92 | 1000.0 |
| 20260903042544 | 56 | 123 | 2.0 | 8.0 | 0.00 | 0.24 | 0.24 | 92 | 999.9 |
| 20260903042509 | 57 | 124 | 2.0 | 8.0 | 0.00 | 0.24 | 0.24 | 92 | 1000.0 |
| 20260903042016 | 56 | 131 | 1.0 | 7.0 | 0.00 | 0.24 | 0.24 | 92 | 999.9 |
| 20260903042003 | 57 | 131 | 1.0 | 7.0 | 0.00 | 0.24 | 0.24 | 92 | 1000.0 |
| 20260903041542 | 57 | 131 | 3.0 | 7.0 | 0.00 | 0.24 | 0.24 | 92 | 999.8 |
| 20260903041455 | 57 | 131 | 4.0 | 7.0 | 0.00 | 0.24 | 0.24 | 92 | 999.9 |
| 20260903041118 | 57 | 132 | 2.0 | 7.0 | 0.00 | 0.24 | 0.24 | 92 | 999.9 |
| 20260903041015 | 57 | 133 | 2.0 | 7.0 | 0.00 | 0.24 | 0.24 | 92 | 999.9 |
| 20260903040550 | 57 | 132 | 2.0 | 9.0 | 0.00 | 0.24 | 0.24 | 92 | 999.8 |
| 20260903040504 | 57 | 132 | 2.0 | 9.0 | 0.00 | 0.24 | 0.24 | 92 | 999.9 |
| 20260903040022 | 57 | 133 | 4.0 | 9.0 | 0.00 | 0.24 | 0.24 | 92 | 999.7 |
| 20260903035953 | 57 | 133 | 5.0 | 9.0 | 0.00 | 0.24 | 0.24 | 92 | 999.8 |
| 20260903035544 | 57 | 136 | 3.0 | 8.0 | 0.00 | 0.24 | 0.24 | 92 | 999.7 |
| 20260903035448 | 57 | 135 | 4.0 | 8.0 | 0.00 | 0.24 | 0.24 | 92 | 999.7 |
| 20260903035116 | 57 | 134 | 4.0 | 8.0 | 0.00 | 0.24 | 0.24 | 92 | 999.7 |
| 20260903035028 | 57 | 136 | 4.0 | 7.0 | 0.00 | 0.24 | 0.24 | 92 | 999.6 |
| 20260903034524 | 57 | 138 | 3.0 | 7.0 | 0.00 | 0.24 | 0.24 | 92 | 999.5 |
| 20260903034451 | 57 | 138 | 3.0 | 7.0 | 0.00 | 0.24 | 0.24 | 92 | 999.6 |
| 20260903034056 | 57 | 138 | 2.0 | 7.0 | 0.00 | 0.24 | 0.24 | 92 | 999.4 |
| 20260903034016 | 58 | 138 | 2.0 | 7.0 | 0.00 | 0.24 | 0.24 | 92 | 999.4 |
| 20260903033530 | 57 | 138 | 2.0 | 7.0 | 0.00 | 0.24 | 0.24 | 92 | 999.3 |
| 20260903033510 | 58 | 138 | 2.0 | 7.0 | 0.00 | 0.24 | 0.24 | 92 | 999.4 |
| 20260903033040 | 57 | 138 | 1.0 | 7.0 | 0.00 | 0.24 | 0.24 | 92 | 999.3 |
| 20260903033009 | 58 | 138 | 3.0 | 7.0 | 0.00 | 0.24 | 0.24 | 92 | 999.3 |
| 20260903032554 | 57 | 135 | 2.0 | 9.0 | 0.00 | 0.24 | 0.24 | 92 | 999.3 |
| 20260903032512 | 58 | 136 | 2.0 | 9.0 | 0.00 | 0.24 | 0.24 | 92 | 999.3 |
| 20260903032109 | 57 | 136 | 3.0 | 9.0 | 0.00 | 0.24 | 0.24 | 92 | 999.1 |
| 20260903032018 | 58 | 136 | 4.0 | 9.0 | 0.00 | 0.24 | 0.24 | 92 | 999.1 |
| 20260903031619 | 57 | 126 | 3.0 | 12.0 | 0.00 | 0.24 | 0.24 | 92 | 999.1 |
| 20260903031520 | 58 | 126 | 4.0 | 12.0 | 0.00 | 0.24 | 0.24 | 92 | 999.2 |
| 20260903031030 | 57 | 126 | 4.0 | 12.0 | 0.00 | 0.24 | 0.24 | 92 | 999.0 |
| 20260903030951 | 58 | 140 | 4.0 | 12.0 | 0.00 | 0.24 | 0.24 | 92 | 999.0 |
| 20260903030606 | 58 | 130 | 3.0 | 9.0 | 0.00 | 0.24 | 0.24 | 92 | 999.1 |
| 20260903030513 | 58 | 130 | 4.0 | 9.0 | 0.00 | 0.24 | 0.24 | 92 | 999.1 |
| 20260903030038 | 58 | 138 | 1.0 | 9.0 | 0.00 | 0.24 | 0.24 | 92 | 999.1 |
| 20260903030002 | 58 | 138 | 1.0 | 8.0 | 0.00 | 0.24 | 0.24 | 92 | 999.1 |
| 20260903025508 | 58 | 140 | 2.0 | 8.0 | 0.00 | 0.24 | 0.24 | 92 | 999.1 |
| 20260903025456 | 58 | 141 | 3.0 | 8.0 | 0.00 | 0.24 | 0.24 | 92 | 999.2 |
| 20260903025044 | 58 | 139 | 1.0 | 8.0 | 0.00 | 0.24 | 0.24 | 92 | 999.0 |
| 20260903025016 | 58 | 139 | 2.0 | 8.0 | 0.00 | 0.24 | 0.24 | 92 | 999.0 |
| 20260903024612 | 58 | 139 | 3.0 | 10.0 | 0.00 | 0.24 | 0.24 | 92 | 999.0 |
| 20260903024451 | 58 | 139 | 4.0 | 10.0 | 0.00 | 0.24 | 0.24 | 92 | 999.0 |
| 20260903024125 | 58 | 139 | 4.0 | 9.0 | 0.00 | 0.24 | 0.24 | 92 | 998.8 |
| 20260903024023 | 58 | 134 | 4.0 | 8.0 | 0.00 | 0.24 | 0.24 | 92 | 998.8 |
| 20260903023534 | 58 | 123 | 1.0 | 8.0 | 0.00 | 0.24 | 0.24 | 92 | 998.7 |
| 20260903023451 | 59 | 122 | 2.0 | 8.0 | 0.00 | 0.24 | 0.24 | 92 | 998.7 |
| 20260903023010 | 58 | 227 | 2.0 | 8.0 | 0.00 | 0.24 | 0.24 | 92 | 998.7 |
| 20260903022950 | 59 | 134 | 3.0 | 8.0 | 0.00 | 0.24 | 0.24 | 92 | 998.7 |
| 20260903022546 | 58 | 130 | 1.0 | 7.0 | 0.00 | 0.24 | 0.24 | 92 | 998.6 |
| 20260903022503 | 59 | 133 | 1.0 | 8.0 | 0.00 | 0.24 | 0.24 | 92 | 998.6 |
| 20260903022051 | 58 | 132 | 3.0 | 11.0 | 0.00 | 0.24 | 0.24 | 92 | 998.7 |
| 20260903021956 | 59 | 131 | 3.0 | 11.0 | 0.00 | 0.24 | 0.24 | 92 | 998.8 |
| 20260903021626 | 58 | 132 | 3.0 | 11.0 | 0.00 | 0.24 | 0.24 | 92 | 998.7 |
| 20260903021519 | 59 | 138 | 3.0 | 11.0 | 0.00 | 0.24 | 0.24 | 92 | 998.8 |
| 20260903021048 | 58 | 141 | 3.0 | 7.0 | 0.00 | 0.24 | 0.24 | 92 | 998.6 |
| 20260903021004 | 59 | 141 | 3.0 | 7.0 | 0.00 | 0.24 | 0.24 | 92 | 998.6 |
| 20260903020516 | 59 | 162 | 1.0 | 9.0 | 0.00 | 0.24 | 0.24 | 95 | 998.6 |
| 20260903020451 | 59 | 130 | 2.0 | 9.0 | 0.00 | 0.24 | 0.24 | 92 | 998.6 |
| 20260903020051 | 59 | 131 | 3.0 | 9.0 | 0.00 | 0.24 | 0.24 | 95 | 998.5 |
| 20260903015946 | 59 | 130 | 4.0 | 9.0 | 0.00 | 0.24 | 0.24 | 95 | 998.6 |
| 20260903015618 | 59 | 138 | 3.0 | 8.0 | 0.00 | 0.24 | 0.24 | 93 | 998.5 |
| 20260903015528 | 59 | 136 | 3.0 | 8.0 | 0.00 | 0.24 | 0.24 | 93 | 998.5 |
| 20260903015033 | 59 | 134 | 1.0 | 7.0 | 0.00 | 0.24 | 0.24 | 93 | 998.5 |
| 20260903015003 | 59 | 134 | 2.0 | 7.0 | 0.00 | 0.24 | 0.24 | 93 | 998.5 |
| 20260903014601 | 59 | 134 | 1.0 | 8.0 | 0.00 | 0.24 | 0.24 | 93 | 998.3 |
| 20260903014459 | 59 | 134 | 2.0 | 8.0 | 0.00 | 0.24 | 0.24 | 93 | 998.2 |
| 20260903014045 | 59 | 135 | 0.0 | 8.0 | 0.00 | 0.24 | 0.24 | 93 | 998.2 |
| 20260903013955 | 59 | 134 | 0.0 | 8.0 | 0.00 | 0.24 | 0.24 | 93 | 998.2 |
| 20260903013518 | 58 | 134 | 2.0 | 8.0 | 0.00 | 0.24 | 0.24 | 92 | 998.2 |
| 20260903013450 | 59 | 134 | 2.0 | 8.0 | 0.00 | 0.24 | 0.24 | 92 | 998.3 |
| 20260903013052 | 58 | 141 | 0.0 | 5.0 | 0.00 | 0.24 | 0.24 | 92 | 998.3 |
| 20260903013013 | 59 | 142 | 1.0 | 5.0 | 0.00 | 0.24 | 0.24 | 92 | 998.4 |
| 20260903012557 | 58 | 141 | 0.0 | 4.0 | 0.00 | 0.24 | 0.24 | 92 | 998.3 |
| 20260903012453 | 59 | 141 | 1.0 | 4.0 | 0.00 | 0.24 | 0.24 | 92 | 998.4 |
| 20260903012108 | 58 | 142 | 0.0 | 4.0 | 0.00 | 0.24 | 0.24 | 92 | 998.3 |
| 20260903012013 | 59 | 142 | 1.0 | 4.0 | 0.01 | 0.24 | 0.24 | 92 | 998.2 |
| 20260903011620 | 58 | 142 | 0.0 | 2.0 | 0.01 | 0.24 | 0.24 | 92 | 998.2 |
| 20260903011516 | 59 | 142 | 0.0 | 2.0 | 0.01 | 0.24 | 0.24 | 92 | 998.2 |
| 20260903011050 | 58 | 142 | 0.0 | 2.0 | 0.01 | 0.24 | 0.24 | 92 | 998.2 |
| 20260903011003 | 59 | 142 | 0.0 | 2.0 | 0.01 | 0.24 | 0.24 | 92 | 998.2 |
| 20260903010629 | 58 | 142 | 0.0 | 5.0 | 0.01 | 0.24 | 0.24 | 92 | 998.2 |
| 20260903010548 | 59 | 142 | 0.0 | 5.0 | 0.01 | 0.24 | 0.24 | 92 | 998.3 |
| 20260903010506 | 59 | 142 | 0.0 | 5.0 | 0.01 | 0.24 | 0.24 | 92 | 998.3 |
| 20260903010022 | 58 | 142 | 2.0 | 5.0 | 0.01 | 0.24 | 0.24 | 92 | 998.2 |
| 20260903010000 | 59 | 142 | 2.0 | 5.0 | 0.01 | 0.24 | 0.24 | 92 | 998.2 |
| 20260903005554 | 58 | 142 | 0.0 | 1.0 | 0.01 | 0.24 | 0.24 | 92 | 998.1 |
| 20260903005459 | 59 | 142 | 0.0 | 1.0 | 0.01 | 0.24 | 0.24 | 92 | 998.1 |
| 20260903005055 | 58 | 142 | 0.0 | 6.0 | 0.01 | 0.24 | 0.24 | 92 | 998.0 |
| 20260903005004 | 58 | 142 | 0.0 | 6.0 | 0.01 | 0.24 | 0.24 | 92 | 998.0 |
| 20260903004949 | 59 | 142 | 0.0 | 6.0 | 0.01 | 0.24 | 0.24 | 92 | 998.1 |
| 20260903004537 | 58 | 142 | 1.0 | 7.0 | 0.01 | 0.24 | 0.24 | 92 | 998.0 |
| 20260903004512 | 59 | 141 | 1.0 | 7.0 | 0.01 | 0.24 | 0.24 | 92 | 998.0 |
| 20260903004058 | 58 | 142 | 1.0 | 7.0 | 0.01 | 0.24 | 0.24 | 92 | 998.0 |
| 20260903004001 | 59 | 142 | 2.0 | 7.0 | 0.01 | 0.24 | 0.24 | 92 | 998.0 |
| 20260903003530 | 58 | 157 | 0.0 | 6.0 | 0.01 | 0.24 | 0.24 | 92 | 998.0 |
| 20260903003455 | 59 | 158 | 1.0 | 6.0 | 0.01 | 0.24 | 0.24 | 92 | 998.0 |
| 20260903003111 | 58 | 158 | 0.0 | 7.0 | 0.01 | 0.24 | 0.24 | 92 | 997.9 |
| 20260903003046 | 59 | 158 | 0.0 | 7.0 | 0.01 | 0.24 | 0.24 | 92 | 997.8 |
| 20260903003004 | 59 | 158 | 0.0 | 7.0 | 0.01 | 0.24 | 0.24 | 92 | 997.8 |
| 20260903002552 | 58 | 158 | 1.0 | 7.0 | 0.01 | 0.24 | 0.24 | 92 | 997.7 |
| 20260903002453 | 59 | 157 | 2.0 | 7.0 | 0.01 | 0.24 | 0.24 | 92 | 997.8 |
| 20260903002030 | 58 | 175 | 1.0 | 6.0 | 0.00 | 0.23 | 0.23 | 92 | 997.8 |
| 20260903002009 | 59 | 174 | 2.0 | 6.0 | 0.00 | 0.23 | 0.23 | 92 | 997.9 |
| 20260903001559 | 58 | 166 | 0.0 | 5.0 | 0.00 | 0.23 | 0.23 | 92 | 997.8 |
| 20260903001504 | 59 | 167 | 1.0 | 5.0 | 0.00 | 0.23 | 0.23 | 92 | 997.8 |
| 20260903001029 | 58 | 167 | 1.0 | 8.0 | 0.00 | 0.23 | 0.23 | 92 | 997.7 |
| 20260903000955 | 59 | 167 | 1.0 | 8.0 | 0.00 | 0.23 | 0.23 | 92 | 997.8 |
| 20260903000556 | 58 | 140 | 1.0 | 8.0 | 0.00 | 0.23 | 0.23 | 91 | 997.7 |
| 20260903000504 | 58 | 140 | 1.0 | 8.0 | 0.00 | 0.23 | 0.23 | 91 | 997.7 |
| 20260903000454 | 59 | 140 | 2.0 | 8.0 | 0.00 | 0.23 | 0.23 | 91 | 997.8 |
| 20260903000040 | 58 | 140 | 2.0 | 7.0 | 0.00 | 0.23 | 0.23 | 91 | 997.7 |
| 20260902235946 | 59 | 148 | 3.0 | 7.0 | 0.00 | 0.23 | 0.23 | 91 | 997.7 |
| 20260902235519 | 58 | 142 | 0.0 | 7.0 | 0.00 | 0.23 | 0.23 | 92 | 997.7 |
| 20260902235446 | 59 | 142 | 1.0 | 7.0 | 0.00 | 0.23 | 0.23 | 92 | 997.7 |